{"data":{"norad_id":67830,"intl_designator":"2026-033K","name":"STARLINK-36611","alt_names":[],"object_type":"PAYLOAD","status":"ACTIVE","operator":null,"country":"US","launch_date":"2026-02-16","launch_site_code":"AFETR","launch_vehicle":null,"mission":null,"orbit_class":"UNKNOWN","rcs_meters":null,"size_class":null,"mass_kg":null,"dimensions":null,"purposes":["comms"],"wikipedia_slug":null,"has_3d_model":false,"image_url":null,"decayed_at":null,"tle_current":{"epoch":"2026-05-24T13:41:57.358464Z","epoch_age_seconds":102403,"freshness":"FRESH","line1":"1 67830U 26033K   26144.57080276  .00004186  00000+0  16156-3 0  9990","line2":"2 67830  43.0006 198.9847 0001332 269.7997  90.2702 15.27581374 16272","mean_motion":15.27581374,"eccentricity":0.0001332,"inclination_deg":43.0006,"raan_deg":198.9847,"arg_perigee_deg":269.7997,"mean_anomaly_deg":90.2702,"bstar":0.00016156,"rev_number":1627,"period_min":94.26666392438,"perigee_km":482.13107235247,"apogee_km":483.95889123242,"semimajor_km":6861.1819817924,"source":"CELESTRAK","updated_at":"2026-05-25T13:38:21.699281Z"}}}